Time,TemperatureF,DewpointF,PressureIn,WindDirection,WindDirectionDegrees,WindSpeedMPH,WindSpeedGustMPH,Humidity,HourlyPrecipIn,Conditions,Clouds,dailyrainin,SoftwareType,DateUTC
2013-11-13 00:13:00,28.0,16.0,-100.00,NNE,13,2.0,4.0,59,0.00,,,0.00,,2013-11-13 05:13:00,
2013-11-13 00:23:00,29.0,17.0,-100.00,East,86,0.0,1.0,60,0.00,,,0.00,,2013-11-13 05:23:00,
2013-11-13 00:33:00,29.0,17.0,-100.00,East,86,0.0,1.0,60,0.00,,,0.00,,2013-11-13 05:33:00,
2013-11-13 00:53:00,29.0,18.0,-100.00,South,175,2.0,3.0,63,0.00,,,0.00,,2013-11-13 05:53:00,
2013-11-13 01:13:00,29.0,18.0,-100.00,WNW,301,1.0,2.0,63,0.00,,,0.00,,2013-11-13 06:13:00,
2013-11-13 01:23:00,28.0,18.0,-100.00,NNE,18,2.0,3.0,68,0.00,,,0.00,,2013-11-13 06:23:00,
2013-11-13 01:32:00,28.0,18.0,-100.00,NNE,18,2.0,3.0,68,0.00,,,0.00,,2013-11-13 06:32:00,
2013-11-13 01:52:00,26.0,18.0,-100.00,NNW,332,4.0,6.0,72,0.00,,,0.00,,2013-11-13 06:52:00,
2013-11-13 02:11:00,27.0,18.0,-100.00,NNW,329,2.0,3.0,70,0.00,,,0.00,,2013-11-13 07:11:00,
2013-11-13 02:22:00,29.0,19.0,-100.00,NNW,328,9.0,15.0,65,0.00,,,0.00,,2013-11-13 07:22:00,
2013-11-13 02:32:00,29.0,19.0,-100.00,NNW,328,9.0,15.0,65,0.00,,,0.00,,2013-11-13 07:32:00,
2013-11-13 02:52:00,30.0,18.0,-100.00,NNW,344,11.0,17.0,61,0.00,,,0.00,,2013-11-13 07:52:00,
2013-11-13 03:12:00,31.0,18.0,-100.00,North,354,10.0,14.0,59,0.00,,,0.00,,2013-11-13 08:12:00,
2013-11-13 03:22:00,30.0,18.0,-100.00,NNW,339,5.0,8.0,61,0.00,,,0.00,,2013-11-13 08:22:00,
2013-11-13 03:32:00,30.0,18.0,-100.00,NNW,339,5.0,8.0,61,0.00,,,0.00,,2013-11-13 08:32:00,
2013-11-13 03:52:00,30.0,18.0,-100.00,NW,322,5.0,7.0,60,0.00,,,0.00,,2013-11-13 08:52:00,
2013-11-13 04:11:00,30.0,21.0,-100.00,NW,319,4.0,7.0,69,0.00,,,0.00,,2013-11-13 09:11:00,
2013-11-13 04:22:00,30.0,21.0,-100.00,NW,319,4.0,7.0,69,0.00,,,0.00,,2013-11-13 09:22:00,
2013-11-13 04:52:00,29.0,18.0,-100.00,NNW,332,9.0,13.0,64,0.00,,,0.00,,2013-11-13 09:52:00,
2013-11-13 05:13:00,28.0,18.0,-100.00,NW,316,3.0,5.0,66,0.00,,,0.00,,2013-11-13 10:13:00,
2013-11-13 05:23:00,28.0,17.0,-100.00,NW,322,6.0,9.0,62,0.00,,,0.00,,2013-11-13 10:23:00,
2013-11-13 05:33:00,28.0,17.0,-100.00,NW,322,6.0,9.0,62,0.00,,,0.00,,2013-11-13 10:33:00,
2013-11-13 05:52:00,27.0,16.0,-100.00,NW,319,6.0,10.0,61,0.00,,,0.00,,2013-11-13 10:52:00,
2013-11-13 06:12:00,27.0,16.0,-100.00,NNW,332,6.0,9.0,62,0.00,,,0.00,,2013-11-13 11:12:00,
2013-11-13 06:22:00,27.0,16.0,-100.00,NW,322,5.0,7.0,62,0.00,,,0.00,,2013-11-13 11:22:00,
2013-11-13 06:33:00,27.0,16.0,-100.00,NW,322,5.0,7.0,62,0.00,,,0.00,,2013-11-13 11:33:00,
2013-11-13 06:42:00,27.0,16.0,-100.00,NW,322,5.0,7.0,62,0.00,,,0.00,,2013-11-13 11:42:00,
2013-11-13 06:52:00,27.0,15.0,-100.00,NNW,335,7.0,8.0,60,0.00,,,0.00,,2013-11-13 11:52:00,
2013-11-13 07:12:00,27.0,15.0,-100.00,NNW,339,6.0,8.0,60,0.00,,,0.00,,2013-11-13 12:12:00,
2013-11-13 07:22:00,27.0,15.0,-100.00,NNW,342,3.0,5.0,61,0.00,,,0.00,,2013-11-13 12:22:00,
2013-11-13 07:32:00,27.0,15.0,-100.00,NNW,342,3.0,5.0,61,0.00,,,0.00,,2013-11-13 12:32:00,
2013-11-13 07:52:00,27.0,15.0,-100.00,NW,315,3.0,5.0,62,0.00,,,0.00,,2013-11-13 12:52:00,
2013-11-13 08:11:00,27.0,16.0,-100.00,NW,322,5.0,9.0,61,0.00,,,0.00,,2013-11-13 13:11:00,
2013-11-13 08:22:00,27.0,16.0,-100.00,NW,322,5.0,9.0,61,0.00,,,0.00,,2013-11-13 13:22:00,
2013-11-13 08:51:00,31.0,16.0,-100.00,North,350,9.0,12.0,53,0.00,,,0.00,,2013-11-13 13:51:00,
2013-11-13 08:52:00,29.0,16.0,-100.00,North,359,8.0,12.0,57,0.00,,,0.00,,2013-11-13 13:52:00,
2013-11-13 09:11:00,30.0,16.0,-100.00,NNW,340,10.0,12.0,56,0.00,,,0.00,,2013-11-13 14:11:00,
2013-11-13 09:22:00,30.0,16.0,-100.00,NNW,340,10.0,12.0,56,0.00,,,0.00,,2013-11-13 14:22:00,
2013-11-13 09:42:00,31.0,16.0,-100.00,North,350,9.0,12.0,53,0.00,,,0.00,,2013-11-13 14:42:00,
2013-11-13 10:53:00,33.0,15.0,-100.00,NNW,330,11.0,12.0,46,0.00,,,0.00,,2013-11-13 15:53:00,
2013-11-13 11:13:00,35.0,16.0,-100.00,North,11,6.0,11.0,44,0.00,,,0.00,,2013-11-13 16:13:00,
2013-11-13 11:23:00,36.0,15.0,-100.00,NW,313,8.0,10.0,41,0.00,,,0.00,,2013-11-13 16:23:00,
2013-11-13 11:33:00,36.0,15.0,-100.00,NW,313,8.0,10.0,41,0.00,,,0.00,,2013-11-13 16:33:00,
2013-11-13 11:53:00,36.0,15.0,-100.00,NW,306,8.0,12.0,41,0.00,,,0.00,,2013-11-13 16:53:00,
2013-11-13 12:12:00,37.0,14.0,-100.00,NW,319,8.0,11.0,39,0.00,,,0.00,,2013-11-13 17:12:00,
2013-11-13 12:23:00,37.0,14.0,-100.00,NW,319,8.0,11.0,39,0.00,,,0.00,,2013-11-13 17:23:00,
2013-11-13 12:52:00,38.0,15.0,-100.00,NW,320,11.0,14.0,38,0.00,,,0.00,,2013-11-13 17:52:00,
2013-11-13 13:12:00,39.0,16.0,-100.00,NW,322,6.0,9.0,38,0.00,,,0.00,,2013-11-13 18:12:00,
2013-11-13 13:23:00,39.0,16.0,-100.00,NW,322,6.0,9.0,38,0.00,,,0.00,,2013-11-13 18:23:00,
2013-11-13 13:52:00,40.0,13.0,-100.00,NW,316,6.0,11.0,33,0.00,,,0.00,,2013-11-13 18:52:00,
2013-11-13 14:11:00,42.0,13.0,-100.00,NNW,332,5.0,8.0,30,0.00,,,0.00,,2013-11-13 19:11:00,
2013-11-13 14:22:00,42.0,13.0,-100.00,NNW,332,5.0,8.0,30,0.00,,,0.00,,2013-11-13 19:22:00,
2013-11-13 14:42:00,43.0,14.0,-100.00,NW,322,6.0,11.0,31,0.00,,,0.00,,2013-11-13 19:42:00,
2013-11-13 14:52:00,42.0,13.0,-100.00,NW,306,6.0,10.0,31,0.00,,,0.00,,2013-11-13 19:52:00,
2013-11-13 15:11:00,42.0,14.0,-100.00,NW,320,7.0,9.0,31,0.00,,,0.00,,2013-11-13 20:11:00,
2013-11-13 15:22:00,42.0,14.0,-100.00,NW,320,7.0,9.0,31,0.00,,,0.00,,2013-11-13 20:22:00,
2013-11-13 15:52:00,42.0,13.0,-100.00,NW,315,6.0,8.0,29,0.00,,,0.00,,2013-11-13 20:52:00,
2013-11-13 16:12:00,42.0,13.0,-100.00,NW,323,8.0,12.0,30,0.00,,,0.00,,2013-11-13 21:12:00,
2013-11-13 16:22:00,42.0,12.0,-100.00,NW,322,11.0,16.0,30,0.00,,,0.00,,2013-11-13 21:22:00,
2013-11-13 16:33:00,42.0,12.0,-100.00,NW,322,11.0,16.0,30,0.00,,,0.00,,2013-11-13 21:33:00,
2013-11-13 17:13:00,41.0,12.0,-100.00,NW,313,9.0,13.0,30,0.00,,,0.00,,2013-11-13 22:13:00,
2013-11-13 17:23:00,40.0,13.0,-100.00,NW,319,10.0,13.0,33,0.00,,,0.00,,2013-11-13 22:23:00,
2013-11-13 17:33:00,40.0,13.0,-100.00,NW,319,10.0,13.0,33,0.00,,,0.00,,2013-11-13 22:33:00,
2013-11-13 17:53:00,39.0,13.0,-100.00,NW,309,6.0,8.0,34,0.00,,,0.00,,2013-11-13 22:53:00,
2013-11-13 18:11:00,38.0,14.0,-100.00,NW,316,5.0,7.0,37,0.00,,,0.00,,2013-11-13 23:11:00,
2013-11-13 18:22:00,38.0,15.0,-100.00,NW,312,2.0,4.0,39,0.00,,,0.00,,2013-11-13 23:22:00,
2013-11-13 18:32:00,38.0,15.0,-100.00,NW,312,2.0,4.0,39,0.00,,,0.00,,2013-11-13 23:32:00,
2013-11-13 18:52:00,37.0,15.0,-100.00,West,265,1.0,3.0,39,0.00,,,0.00,,2013-11-13 23:52:00,
2013-11-13 19:11:00,37.0,14.0,-100.00,WNW,295,2.0,5.0,40,0.00,,,0.00,,2013-11-14 00:11:00,
2013-11-13 19:22:00,36.0,15.0,-100.00,NW,309,2.0,2.0,42,0.00,,,0.00,,2013-11-14 00:22:00,
2013-11-13 19:32:00,36.0,15.0,-100.00,NW,309,2.0,2.0,42,0.00,,,0.00,,2013-11-14 00:32:00,
2013-11-13 19:52:00,36.0,17.0,-100.00,NW,312,4.0,8.0,45,0.00,,,0.00,,2013-11-14 00:52:00,
2013-11-13 20:11:00,35.0,17.0,-100.00,WNW,299,0.0,2.0,47,0.00,,,0.00,,2013-11-14 01:11:00,
2013-11-13 20:22:00,35.0,16.0,-100.00,NW,322,2.0,3.0,45,0.00,,,0.00,,2013-11-14 01:22:00,
2013-11-13 20:32:00,35.0,16.0,-100.00,NW,322,2.0,3.0,45,0.00,,,0.00,,2013-11-14 01:32:00,
2013-11-13 20:52:00,35.0,17.0,-100.00,East,79,4.0,6.0,47,0.00,,,0.00,,2013-11-14 01:52:00,
2013-11-13 21:12:00,34.0,17.0,-100.00,North,4,3.0,6.0,49,0.00,,,0.00,,2013-11-14 02:12:00,
2013-11-13 21:22:00,34.0,17.0,-100.00,WNW,301,1.0,3.0,48,0.00,,,0.00,,2013-11-14 02:22:00,
2013-11-13 21:32:00,34.0,17.0,-100.00,WNW,301,1.0,3.0,48,0.00,,,0.00,,2013-11-14 02:32:00,
2013-11-13 21:42:00,34.0,17.0,-100.00,WNW,301,1.0,3.0,48,0.00,,,0.00,,2013-11-14 02:42:00,
2013-11-13 22:12:00,32.0,18.0,-100.00,South,175,1.0,2.0,56,0.00,,,0.00,,2013-11-14 03:12:00,
2013-11-13 22:22:00,30.0,17.0,-100.00,SSE,161,3.0,4.0,57,0.00,,,0.00,,2013-11-14 03:22:00,
2013-11-13 22:34:00,30.0,17.0,-100.00,SSE,161,3.0,4.0,57,0.00,,,0.00,,2013-11-14 03:34:00,
2013-11-13 22:54:00,30.0,17.0,-100.00,NNW,347,1.0,1.0,59,0.00,,,0.00,,2013-11-14 03:54:00,
2013-11-13 23:14:00,29.0,17.0,-100.00,South,182,1.0,2.0,60,0.00,,,0.00,,2013-11-14 04:14:00,
2013-11-13 23:24:00,30.0,17.0,-100.00,SSE,167,2.0,3.0,59,0.00,,,0.00,,2013-11-14 04:24:00,
2013-11-13 23:34:00,30.0,17.0,-100.00,SSE,167,2.0,3.0,59,0.00,,,0.00,,2013-11-14 04:34:00,
2013-11-13 23:51:00,28.0,18.0,-100.00,SSE,164,2.0,3.0,64,0.00,,,0.00,,2013-11-14 04:51:00,
2013-11-13 23:54:00,27.0,18.0,-100.00,SE,137,2.0,2.0,67,0.00,,,0.00,,2013-11-14 04:54:00,